Tracking 19709 objects as of 19-Jun-2019
HD Live streaming from Space Station
objects crossing your sky now

BEIDOU-2 G8

Track BEIDOU-2 G8 now!
BEIDOU-2 G8 is classified as:


NORAD ID: 44231
Int'l Code: 2019-027A
Perigee: 35,780.5 km
Apogee: 35,807.2 km
Inclination: 1.8 °
Period: 1,436.1 minutes
Semi major axis: 42164 km
RCS: Unknown
Launch date: May 17, 2019
Source: People's Republic of China (PRC)
Launch site: Xichang Space Center, China (XSC)
aabbcc
Your satellite tracking list
Your tracking list is empty




NASA's NSSDC Master Catalog

Two Line Element Set (TLE):
1 44231U 19027A   19169.95206888 -.00000142 +00000-0 +00000-0 0  9993
2 44231 001.8022 293.9490 0003173 132.6982 263.0394 01.00271349000475
Source of the keplerian elements: AFSPC